This demonstration page uses our WeatherBlox Daily Observations layout. Learn more.

39.29038, -76.61219

Hourly Observations for September 26, 2016

Temp ( °F °C ) Dew Point ( °F °C ) Humidity (%) Winds ( mph kmh ) Pressure ( in mb ) Visibility ( mi km ) Precip ( " mm )
12:54 am 00:54 undefined 63 17.2 48 8.9 58 58 undefined N/A 30.17 1022 N/A 0 0
1:54 am 01:54 undefined 62 16.7 50 10 65 65 undefined N/A 30.17 1022 N/A 0 0
2:54 am 02:54 undefined 62 16.7 50 10 65 65 undefined N/A 30.16 1021 N/A 0 0
3:54 am 03:54 undefined 62 16.7 51 10.6 67 67 undefined N/A 30.16 1021 N/A 0 0
4:54 am 04:54 undefined 61 16.1 51 10.6 70 70 undefined N/A 30.14 1021 N/A 0 0
5:54 am 05:54 undefined 62 16.7 52 11.1 70 70 undefined N/A 30.14 1021 N/A 0 0
6:54 am 06:54 undefined 63 17.2 53 11.7 70 70 undefined N/A 30.15 1021 N/A 0 0
7:54 am 07:54 undefined 64 17.8 55 12.8 73 73 undefined N/A 30.14 1021 N/A 0 0
8:54 am 08:54 undefined 67 19.4 57 13.9 71 71 undefined N/A 30.14 1021 N/A 0 0
9:54 am 09:54 undefined 68 20 58 14.4 70 70 undefined N/A 30.14 1021 N/A 0 0
10:54 am 10:54 undefined 68 20 58 14.4 70 70 undefined N/A 30.14 1021 N/A 0 0
11:54 am 11:54 undefined 68 20 57 13.9 68 68 undefined N/A 30.14 1021 N/A 0 0
12:54 pm 12:54 undefined 68 20 57 13.9 68 68 undefined N/A 30.12 1020 N/A 0 0
1:54 pm 13:54 undefined 69 20.6 57 13.9 66 66 undefined N/A 30.1 1019 N/A 0 0
2:54 pm 14:54 undefined 68 20 58 14.4 70 70 undefined N/A 30.08 1019 N/A 0 0
3:54 pm 15:54 undefined 69 20.6 57 13.9 66 66 undefined N/A 30.05 1018 N/A 0 0
4:54 pm 16:54 undefined 69 20.6 56 13.3 63 63 undefined N/A 30.03 1017 N/A 0 0
5:54 pm 17:54 undefined 70 21.1 55 12.8 59 59 undefined N/A 30.02 1017 N/A 0 0
6:54 pm 18:54 undefined 70 21.1 56 13.3 61 61 undefined N/A 30.04 1017 N/A 0 0
7:54 pm 19:54 undefined 70 21.1 55 12.8 59 59 undefined N/A 30.03 1017 N/A 0 0
8:54 pm 20:54 undefined 70 21.1 56 13.3 61 61 undefined N/A 30.03 1017 N/A 0 0
9:54 pm 21:54 undefined 69 20.6 58 14.4 68 68 undefined N/A 29.99 1016 N/A 0 0
10:54 pm 22:54 undefined 68 20 58 14.4 70 70 undefined N/A 29.98 1015 N/A 0 0
11:54 pm 23:54 undefined 67 19.4 59 15 76 76 undefined N/A 29.97 1015 N/A 0 0

Powered by AerisWeather